GW4499 Weather Reports


Display with metric or nautical units.
time (UTC)temp
F
wind
direction
speed
MPH
gust
MPH
rain 1hr
in
rain 24hr
in
rain mn
in
humidity
%
barometer
mb
20260901003518 80 0.0 0.0 0.00 0.00 0.00 34 1017.5
20260901002519 81 0.0 0.0 0.00 0.00 0.00 33 1017.8
20260901001519 81 0.0 1.0 0.00 0.00 0.00 32 1017.8
20260901000518 81 0.0 1.0 0.00 0.00 0.00 31 1017.9
20260831235519 82 0.0 2.0 0.00 0.00 0.00 32 1018.1
20260831234518 82 0.0 1.0 0.00 0.00 0.00 31 1017.9
20260831233519 82 135 1.0 5.0 0.00 0.00 0.00 31 1017.9
20260831232518 82 180 1.0 6.0 0.00 0.00 0.00 31 1018.1
20260831231520 82 158 1.0 3.0 0.00 0.00 0.00 31 1018.1
20260831230540 83 0.0 3.0 0.00 0.00 0.00 30 1018.2
20260831225521 83 158 2.0 4.0 0.00 0.00 0.00 29 1018.1
20260831224601 83 203 1.0 5.0 0.00 0.00 0.00 30 1018.1
20260831223521 83 158 1.0 3.0 0.00 0.00 0.00 31 1018.2
20260831222520 84 113 2.0 6.0 0.00 0.00 0.00 32 1018.3
20260831221520 84 158 3.0 6.0 0.00 0.00 0.00 31 1018.2
20260831220520 84 113 2.0 5.0 0.00 0.00 0.00 30 1018.4
20260831215540 85 203 2.0 8.0 0.00 0.00 0.00 31 1018.4
20260831214520 84 158 1.0 6.0 0.00 0.00 0.00 30 1018.3
20260831213520 85 113 2.0 5.0 0.00 0.00 0.00 29 1018.9
20260831212521 86 158 1.0 5.0 0.00 0.00 0.00 30 1019.5
20260831211520 86 158 2.0 5.0 0.00 0.00 0.00 29 1019.3
20260831210520 85 0.0 3.0 0.00 0.00 0.00 34 1019.6
20260831205520 84 180 1.0 5.0 0.00 0.00 0.00 32 1019.6
20260831204521 84 158 1.0 3.0 0.00 0.00 0.00 34 1019.8
20260831203521 84 113 3.0 6.0 0.00 0.00 0.00 33 1020.0
20260831202522 85 158 2.0 5.0 0.00 0.00 0.00 31 1020.1
20260831201540 84 113 2.0 6.0 0.00 0.00 0.00 34 1020.3
20260831200521 82 135 2.0 6.0 0.00 0.00 0.00 34 1020.1
20260831195540 82 113 1.0 4.0 0.00 0.00 0.00 34 1020.6
20260831194520 82 135 1.0 3.0 0.00 0.00 0.00 33 1020.7
20260831193520 81 203 2.0 5.0 0.00 0.00 0.00 38 1020.9
20260831192520 81 135 2.0 4.0 0.00 0.00 0.00 33 1020.9
20260831191520 81 113 2.0 6.0 0.00 0.00 0.00 33 1021.0
20260831190520 81 135 1.0 4.0 0.00 0.00 0.00 34 1021.1
20260831185520 81 158 1.0 4.0 0.00 0.00 0.00 35 1021.6
20260831184520 81 225 1.0 3.0 0.00 0.00 0.00 34 1021.5
20260831183520 82 135 1.0 6.0 0.00 0.01 0.00 32 1021.6
20260831182520 81 135 1.0 3.0 0.00 0.01 0.00 34 1021.7
20260831181520 80 0.0 2.0 0.00 0.01 0.00 32 1021.5
20260831180520 80 135 1.0 4.0 0.00 0.01 0.00 33 1021.6
20260831175520 81 0.0 4.0 0.00 0.01 0.00 34 1021.7
20260831174520 81 158 1.0 3.0 0.00 0.01 0.00 35 1021.8
20260831173520 81 0.0 4.0 0.00 0.01 0.00 32 1021.7
20260831172520 81 158 1.0 4.0 0.00 0.01 0.00 31 1021.8
20260831171520 80 0.0 1.0 0.00 0.01 0.00 33 1021.9
20260831170520 80 0.0 3.0 0.00 0.01 0.00 32 1022.0
20260831165520 80 158 1.0 4.0 0.00 0.01 0.00 33 1022.0
20260831164520 80 180 1.0 3.0 0.00 0.01 0.00 36 1022.1
20260831163520 80 0.0 1.0 0.00 0.01 0.00 40 1022.2
20260831162520 80 0.0 1.0 0.00 0.01 0.00 37 1022.0
20260831161520 80 0.0 1.0 0.00 0.01 0.00 38 1022.1
20260831160521 79 0.0 1.0 0.00 0.01 0.00 40 1021.8
20260831155520 79 0.0 2.0 0.00 0.01 0.00 43 1022.2
20260831154520 78 0.0 1.0 0.00 0.01 0.00 43 1021.9
20260831153520 77 0.0 1.0 0.00 0.01 0.00 45 1021.9
20260831152520 75 0.0 1.0 0.00 0.01 0.00 46 1021.5
20260831151520 73 0.0 2.0 0.00 0.01 0.00 55 1021.3
20260831150540 71 0.0 1.0 0.00 0.01 0.00 56 1021.1
20260831145520 70 0.0 2.0 0.00 0.01 0.00 54 1020.7
20260831144520 68 0.0 1.0 0.00 0.01 0.00 65 1020.4
20260831143520 65 0.0 0.0 0.00 0.01 0.00 67 1020.0
20260831142520 64 0.0 0.0 0.00 0.01 0.00 71 1019.8
20260831141520 63 0.0 0.0 0.00 0.01 0.00 74 1019.3
20260831140520 62 0.0 0.0 0.00 0.01 0.00 74 1019.2
20260831135520 61 0.0 0.0 0.00 0.01 0.00 77 1019.0
20260831134519 61 0.0 0.0 0.00 0.01 0.00 75 1018.9
20260831133520 60 0.0 0.0 0.00 0.01 0.00 77 1019.0
20260831132520 60 0.0 0.0 0.00 0.01 0.00 76 1019.2
20260831131520 60 0.0 1.0 0.00 0.01 0.00 78 1019.0
20260831130520 59 0.0 1.0 0.00 0.01 0.00 79 1018.5
20260831125539 59 0.0 0.0 0.00 0.01 0.00 81 1018.7
20260831124519 59 0.0 0.0 0.00 0.01 0.00 79 1018.4
20260831123539 59 0.0 1.0 0.00 0.01 0.00 78 1018.4
20260831122519 59 0.0 0.0 0.00 0.01 0.00 78 1018.2
20260831120600 59 0.0 0.0 0.00 0.01 0.00 78 1018.1
20260831115519 59 0.0 0.0 0.00 0.01 0.00 79 1017.9
20260831114520 59 0.0 0.0 0.00 0.01 0.00 78 1018.1
20260831113540 60 0.0 0.0 0.00 0.01 0.00 78 1018.4
20260831112600 60 0.0 0.0 0.00 0.01 0.00 79 1018.2
20260831111539 60 0.0 2.0 0.00 0.01 0.00 78 1018.1
20260831110520 60 0.0 1.0 0.00 0.01 0.00 79 1017.8
20260831105520 60 0.0 1.0 0.00 0.01 0.00 80 1017.6
20260831104519 60 0.0 1.0 0.00 0.01 0.00 80 1017.7
20260831103520 59 0.0 1.0 0.00 0.01 0.00 81 1017.6
20260831102519 59 0.0 1.0 0.00 0.01 0.00 82 1017.8
20260831101519 59 0.0 0.0 0.00 0.01 0.00 83 1017.7
20260831100520 59 0.0 0.0 0.00 0.01 0.00 82 1017.4
20260831095519 59 0.0 0.0 0.00 0.01 0.00 82 1017.4
20260831094519 59 0.0 0.0 0.00 0.01 0.00 82 1017.5
20260831093519 59 0.0 1.0 0.00 0.01 0.00 82 1017.4
20260831092520 59 0.0 0.0 0.00 0.01 0.00 82 1016.9
20260831091540 59 0.0 0.0 0.00 0.01 0.00 81 1016.8
20260831090519 60 0.0 0.0 0.00 0.01 0.00 81 1017.0
20260831085520 60 0.0 0.0 0.00 0.01 0.00 79 1017.2
20260831084519 61 0.0 0.0 0.00 0.01 0.00 79 1017.3
20260831083519 61 0.0 0.0 0.00 0.01 0.00 78 1017.3
20260831082519 61 0.0 0.0 0.00 0.01 0.00 76 1017.3
20260831081519 61 0.0 1.0 0.00 0.01 0.00 76 1017.2
20260831080539 61 0.0 0.0 0.00 0.01 0.00 74 1017.0
20260831075539 62 0.0 0.0 0.00 0.01 0.00 74 1017.4
20260831074519 62 0.0 0.0 0.00 0.01 0.00 72 1017.4
20260831073519 63 0.0 0.0 0.00 0.01 0.00 71 1017.3
20260831072559 64 0.0 1.0 0.00 0.01 0.00 69 1017.3
20260831071519 64 0.0 0.0 0.00 0.01 0.00 68 1017.4
20260831070519 65 0.0 1.0 0.00 0.01 0.00 67 1017.7
20260831065519 65 0.0 1.0 0.00 0.01 0.00 68 1019.7
20260831064519 65 315 1.0 2.0 0.00 0.01 0.00 69 1020.0
20260831063519 65 0.0 2.0 0.00 0.01 0.00 72 1020.1
20260831061519 65 315 1.0 2.0 0.00 0.01 0.00 69 1020.2
20260831060519 65 315 2.0 4.0 0.00 0.01 0.00 72 1020.4
20260831060059 65 0.0 2.0 0.00 0.01 0.01 73 1020.5
20260831055059 64 158 1.0 3.0 0.00 0.01 0.01 74 1019.6
20260831054039 64 0.0 1.0 0.00 0.01 0.01 77 1019.8
20260831053019 64 0.0 0.0 0.00 0.01 0.01 76 1019.7
20260831052039 64 0.0 1.0 0.00 0.01 0.01 74 1019.5
20260831051019 64 0.0 0.0 0.00 0.01 0.01 73 1019.4
20260831050019 64 0.0 0.0 0.00 0.01 0.01 74 1019.6
20260831045019 64 0.0 0.0 0.00 0.01 0.01 73 1018.9
20260831044019 65 0.0 0.0 0.00 0.01 0.01 74 1019.0
20260831043039 64 0.0 0.0 0.00 0.01 0.01 74 1019.0
20260831042019 64 0.0 0.0 0.00 0.01 0.01 73 1018.7
20260831041019 64 0.0 0.0 0.00 0.01 0.01 72 1018.4
20260831040019 64 0.0 0.0 0.00 0.01 0.01 72 1018.2
20260831035039 65 0.0 0.0 0.00 0.01 0.01 72 1017.8
20260831034019 65 0.0 0.0 0.00 0.01 0.01 72 1018.3
20260831033019 64 0.0 0.0 0.00 0.01 0.01 71 1017.6
20260831032059 65 0.0 0.0 0.00 0.01 0.01 73 1017.3
20260831031019 65 0.0 0.0 0.00 0.01 0.01 74 1017.5
20260831030039 65 0.0 1.0 0.00 0.01 0.01 72 1017.5
20260831025019 64 0.0 0.0 0.00 0.01 0.01 74 1016.8
20260831024019 65 0.0 0.0 0.00 0.01 0.01 72 1016.5
20260831023019 65 0.0 0.0 0.00 0.01 0.01 71 1016.6
20260831022019 65 0.0 0.0 0.00 0.01 0.01 71 1016.3
20260831021019 66 0.0 0.0 0.00 0.01 0.01 69 1016.4
20260831020041 67 0.0 0.0 0.00 0.01 0.01 68 1016.1
20260831015019 67 0.0 0.0 0.00 0.01 0.01 67 1016.4
20260831014019 68 0.0 0.0 0.00 0.01 0.01 65 1016.8
20260831013018 68 0.0 0.0 0.00 0.01 0.01 63 1016.5
20260831012019 69 0.0 0.0 0.00 0.01 0.01 64 1016.7
20260831011018 69 0.0 1.0 0.00 0.01 0.01 63 1016.8
20260831010039 70 0.0 0.0 0.00 0.01 0.01 60 1016.8
20260831005018 70 0.0 0.0 0.00 0.01 0.01 56 1016.9
20260831004018 70 0.0 0.0 0.00 0.01 0.01 58 1017.2